Overview Statistics Trail Chart Weather Telemetry Raw packets
 

This is the latest recevied weather packets stored in our database for station/object OK1TBM-13. If no packets are shown the sender has not sent any weather packets the latest 10 day(s).

<< 41 42 43 44 45 46 47 >>
Time Temp. Humidity Pressure Rain* Wind** Luminosity Snow
1788281101 23.33° C 52% 1018 hPa 0 mm - 52 W/m² -
1788280807 23.33° C 53% 1018 hPa 0 mm - 57 W/m² -
1788280502 23.33° C 52% 1018 hPa 0 mm - 66 W/m² -
1788279902 23.33° C 51% 1018.3 hPa 0 mm - 80 W/m² -
1788279602 23.33° C 51% 1018.3 hPa 0 mm - 95 W/m² -
1788279301 23.33° C 49% 1018.3 hPa 0 mm - 107 W/m² -
1788278700 23.33° C 48% 1018.3 hPa 0 mm - 134 W/m² -
1788278407 23.33° C 49% 1018.3 hPa 0 mm - 141 W/m² -
1788276901 23.33° C 51% 1018.3 hPa 0 mm - 209 W/m² -
1788276601 23.33° C 52% 1018.3 hPa 0 mm - 233 W/m² -
1788276301 22.78° C 51% 1018.3 hPa 0 mm - 266 W/m² -
1788276024 22.78° C 52% 1018.3 hPa 0 mm - 190 W/m² -
1788275701 23.33° C 48% 1018.3 hPa 0 mm - 139 W/m² -
1788275401 23.33° C 49% 1018.3 hPa 0 mm - 263 W/m² -
1788275100 23.33° C 49% 1018.3 hPa 0 mm - 333 W/m² -
1788274800 23.33° C 51% 1018.3 hPa 0 mm - 322 W/m² -
1788274500 22.78° C 52% 1018.3 hPa 0 mm - 313 W/m² -
1788274201 22.22° C 54% 1018.3 hPa 0 mm - 353 W/m² -
1788273902 22.22° C 52% 1018.3 hPa 0 mm - 308 W/m² -
1788273602 23.33° C 52% 1018.3 hPa 0 mm - 393 W/m² -
1788273301 23.33° C 51% 1018.3 hPa 0 mm - 408 W/m² -
1788273008 22.78° C 51% 1018.3 hPa 0 mm - 413 W/m² -
1788272702 23.33° C 52% 1018.3 hPa 0 mm - 423 W/m² -
1788272402 22.22° C 56% 1018.3 hPa 0 mm - 193 W/m² -
1788272101 22.22° C 55% 1018.3 hPa 0 mm - 434 W/m² -

* Rain latest hour (hover to see other rain measurements)
** Current wind speed in m/s (hover to see current wind gust speed)